N5MDT Weather Reports


time (UTC)temp
C
wind
direction
speed
KPH
gust
KPH
rain 1hr
cm
rain 24hr
cm
rain mn
cm
humidity
%
barometer
mb
20260508023844 21 5 0.0 0.0 0.00 0.00 0.00 71 1015.3
20260508022844 21 5 0.0 0.0 0.00 0.00 0.00 70 1015.3
20260508021844 21 51 0.0 0.0 0.00 0.00 0.00 71 1015.0
20260508020844 21 305 0.0 0.0 0.00 0.00 0.00 70 1015.4
20260508015844 21 55 0.0 0.0 0.00 0.00 0.00 70 1015.3
20260508014844 21 305 0.0 0.0 0.00 0.00 0.00 70 1015.3
20260508013844 22 329 0.0 0.0 0.00 0.00 0.00 69 1015.5
20260508012844 22 311 0.0 0.0 0.00 0.00 0.00 69 1015.4
20260508011844 22 306 0.0 0.0 0.00 0.00 0.00 68 1015.0
20260508010844 23 292 0.0 0.0 0.00 0.00 0.00 68 1015.1
20260508005844 23 313 0.0 0.0 0.00 0.00 0.00 68 1015.1
20260508004844 23 301 0.0 4.8 0.00 0.00 0.00 67 1015.0
20260508003843 23 327 0.0 0.0 0.00 0.00 0.00 66 1014.8
20260508002844 23 360 0.0 1.6 0.00 0.00 0.00 66 1014.6
20260508001843 23 329 0.0 0.0 0.00 0.00 0.00 65 1015.2
20260508000843 24 329 0.0 4.8 0.00 0.00 0.00 65 1015.3
20260507235843 24 312 0.0 3.2 0.00 0.00 0.00 65 1015.0
20260507234843 25 313 0.0 3.2 0.00 0.00 0.00 65 1015.0
20260507233843 25 313 0.0 1.6 0.00 0.00 0.00 64 1015.1
20260507232843 25 313 0.0 4.8 0.00 0.00 0.00 64 1015.4
20260507231843 25 317 0.0 3.2 0.00 0.00 0.00 64 1015.4
20260507230843 25 332 0.0 8.0 0.00 0.00 0.00 63 1015.2
20260507225843 25 315 0.0 3.2 0.00 0.00 0.00 62 1015.0
20260507224843 25 36 0.0 1.6 0.00 0.00 0.00 62 1014.9
20260507223843 26 69 0.0 0.0 0.00 0.00 0.00 62 1014.7
20260507222842 26 330 0.0 0.0 0.00 0.00 0.00 61 1014.7
20260507221842 26 328 0.0 0.0 0.00 0.00 0.00 61 1014.6
20260507220843 26 75 0.0 0.0 0.00 0.00 0.00 62 1014.7
20260507215842 26 75 0.0 1.6 0.00 0.00 0.00 61 1015.1
20260507214842 26 29 0.0 0.0 0.00 0.00 0.00 61 1015.0
20260507213843 27 27 0.0 0.0 0.00 0.00 0.00 60 1015.1
20260507212843 27 61 0.0 3.2 0.00 0.00 0.00 59 1015.0
20260507211842 27 309 0.0 1.6 0.00 0.00 0.00 58 1014.9
20260507210842 28 328 0.0 3.2 0.00 0.00 0.00 59 1015.3
20260507205842 28 5 0.0 3.2 0.00 0.00 0.00 59 1015.5
20260507204842 27 42 0.0 3.2 0.00 0.00 0.00 61 1015.6
20260507203842 27 42 0.0 4.8 0.00 0.00 0.00 61 1015.6
20260507202842 27 311 1.6 4.8 0.00 0.00 0.00 60 1015.7
20260507201842 27 329 1.6 4.8 0.00 0.00 0.00 58 1015.7
20260507200842 27 341 0.0 9.7 0.00 0.00 0.00 60 1015.7
20260507195842 27 23 1.6 4.8 0.00 0.00 0.00 62 1015.7
20260507194841 26 59 0.0 6.4 0.00 0.00 0.00 62 1016.2
20260507193841 26 21 0.0 8.0 0.00 0.00 0.00 65 1016.3
20260507192841 25 31 0.0 6.4 0.00 0.00 0.00 65 1016.2
20260507191841 25 19 1.6 3.2 0.00 0.00 0.00 65 1016.2
20260507190841 25 38 0.0 3.2 0.00 0.00 0.00 67 1016.4
20260507185841 24 32 0.0 3.2 0.00 0.00 0.00 68 1016.8
20260507184841 23 38 0.0 4.8 0.00 0.00 0.00 69 1017.3
20260507183841 23 311 4.8 6.4 0.00 0.00 0.00 69 1017.1
20260507182841 23 63 0.0 3.2 0.00 0.00 0.00 70 1017.1
20260507181841 22 13 0.0 3.2 0.00 0.00 0.00 70 1017.3
20260507180841 22 34 0.0 6.4 0.00 0.00 0.00 72 1017.6
20260507175840 22 300 6.4 6.4 0.00 0.00 0.00 70 1017.5
20260507174840 21 298 1.6 6.4 0.00 0.00 0.00 72 1017.7
20260507173840 21 323 0.0 4.8 0.00 0.00 0.00 73 1017.6
20260507172841 21 343 0.0 4.8 0.00 0.00 0.00 74 1017.8
20260507171840 20 338 0.0 8.0 0.00 0.00 0.00 75 1018.2
20260507170840 20 340 1.6 6.4 0.00 0.00 0.00 76 1018.0
20260507165840 20 30 1.6 1.6 0.00 0.00 0.00 77 1018.0
20260507164840 19 330 0.0 3.2 0.00 0.00 0.00 77 1018.0
20260507163840 19 339 0.0 3.2 0.00 0.00 0.00 77 1017.8
20260507162840 18 41 0.0 1.6 0.00 0.00 0.00 78 1017.7
20260507161840 18 42 0.0 4.8 0.00 0.00 0.00 78 1017.5
20260507160840 18 51 0.0 3.2 0.00 0.00 0.00 79 1017.5
20260507155840 18 337 0.0 8.0 0.00 0.00 0.00 79 1017.7
20260507154840 17 23 0.0 3.2 0.00 0.00 0.00 80 1016.9
20260507153840 17 59 3.2 3.2 0.00 0.00 0.00 81 1017.0
20260507152840 17 41 1.6 1.6 0.00 0.00 0.00 81 1017.3
20260507151840 17 44 0.0 4.8 0.00 0.00 0.00 80 1017.6
20260507150839 17 5 1.6 14.5 0.00 0.00 0.00 81 1017.7
20260507145839 17 318 0.0 4.8 0.00 0.00 0.00 81 1017.8
20260507144840 17 12 0.0 6.4 0.00 0.00 0.00 82 1017.8
20260507143840 17 332 1.6 3.2 0.00 0.00 0.00 82 1018.2
20260507142839 16 322 3.2 8.0 0.00 0.00 0.00 82 1018.0
20260507141839 16 348 1.6 3.2 0.00 0.00 0.00 82 1018.0
20260507140839 16 50 0.0 4.8 0.00 0.00 0.00 82 1017.9
20260507135839 16 331 1.6 4.8 0.00 0.00 0.00 82 1017.9
20260507134839 16 337 0.0 8.0 0.00 0.00 0.00 82 1018.1
20260507133839 16 330 0.0 0.0 0.00 0.00 0.00 82 1018.0
20260507132839 16 355 0.0 0.0 0.00 0.00 0.00 83 1017.9
20260507131839 16 68 0.0 0.0 0.00 0.00 0.00 83 1017.8
20260507130839 16 327 0.0 3.2 0.00 0.00 0.00 83 1017.9
20260507125838 16 348 0.0 8.0 0.00 0.00 0.00 83 1018.2
20260507124838 17 335 0.0 6.4 0.00 0.00 0.00 83 1018.0
20260507123839 17 15 0.0 8.0 0.00 0.00 0.00 83 1017.6
20260507122839 17 360 0.0 6.4 0.00 0.00 0.00 83 1017.0
20260507121839 17 329 0.0 4.8 0.00 0.00 0.00 82 1016.9
20260507120839 17 5 0.0 6.4 0.00 0.00 0.00 82 1016.6
20260507115838 17 31 0.0 1.6 0.00 0.00 0.00 82 1016.2
20260507114838 17 33 0.0 8.0 0.00 0.00 0.00 82 1016.2
20260507113839 17 29 0.0 6.4 0.00 0.00 0.00 82 1016.4
20260507112838 17 336 0.0 8.0 0.00 0.00 0.00 82 1016.3
20260507111838 17 320 4.8 4.8 0.00 0.00 0.00 82 1016.6
20260507110838 17 286 0.0 3.2 0.00 0.00 0.00 82 1016.1
20260507105838 17 302 1.6 3.2 0.00 0.00 0.00 82 1016.0
20260507104838 17 19 0.0 0.0 0.00 0.00 0.00 82 1015.8
20260507103838 18 335 0.0 3.2 0.00 0.00 0.00 82 1015.8
20260507102838 18 325 0.0 0.0 0.00 0.00 0.00 82 1015.2
20260507101837 18 311 0.0 1.6 0.00 0.00 0.00 82 1015.7
20260507100837 18 65 0.0 1.6 0.00 0.00 0.00 82 1015.2
20260507095838 18 50 0.0 0.0 0.00 0.00 0.00 82 1015.5
20260507094837 18 53 0.0 3.2 0.00 0.00 0.00 82 1014.8
20260507093837 18 59 0.0 1.6 0.00 0.00 0.00 83 1014.4
20260507092838 18 57 0.0 1.6 0.00 0.00 0.00 82 1014.3
20260507091837 18 65 0.0 4.8 0.00 0.00 0.00 83 1014.2
20260507090837 18 63 0.0 3.2 0.00 0.00 0.00 83 1014.5
20260507085837 18 291 0.0 0.0 0.00 0.00 0.00 83 1014.8
20260507084837 18 91 0.0 3.2 0.00 0.00 0.00 83 1014.9
20260507083837 18 15 0.0 0.0 0.00 0.00 0.00 83 1014.6
20260507082837 18 355 0.0 3.2 0.00 0.00 0.00 82 1014.5
20260507081837 18 9 0.0 1.6 0.00 0.00 0.00 82 1014.4
20260507080837 18 89 1.6 3.2 0.00 0.00 0.00 82 1014.6
20260507075837 18 346 0.0 3.2 0.00 0.00 0.00 82 1014.6
20260507074837 18 351 0.0 9.7 0.00 0.00 0.00 82 1015.0
20260507073836 18 338 0.0 1.6 0.00 0.00 0.00 82 1014.9
20260507072836 18 312 1.6 6.4 0.00 0.00 0.00 81 1015.1
20260507071836 18 28 0.0 6.4 0.00 0.00 0.00 81 1014.6
20260507070836 18 333 0.0 4.8 0.00 0.00 0.00 81 1015.4
20260507065836 18 306 0.0 4.8 0.00 0.00 0.00 81 1015.3
20260507064836 18 287 0.0 4.8 0.00 0.00 0.00 81 1015.4
20260507063836 18 355 1.6 4.8 0.00 0.00 0.00 81 1015.4
20260507062836 19 331 0.0 4.8 0.00 0.00 0.00 80 1015.4
20260507061836 19 5 1.6 8.0 0.00 0.00 0.00 80 1015.4
20260507060836 19 348 0.0 4.8 0.00 0.00 0.00 80 1014.8
20260507055836 19 355 0.0 4.8 0.00 0.00 0.00 80 1015.0
20260507054836 19 349 0.0 11.3 0.00 0.00 0.00 80 1015.1
20260507053836 19 331 0.0 4.8 0.00 0.00 0.00 80 1015.2
20260507052836 19 328 0.0 8.0 0.00 0.00 0.00 79 1015.1
20260507051836 19 326 0.0 3.2 0.00 0.00 0.00 79 1014.7
20260507050835 19 19 0.0 6.4 0.00 0.00 0.00 79 1014.8
20260507045835 19 343 1.6 3.2 0.00 0.00 0.00 78 1015.0
20260507044835 19 322 0.0 4.8 0.00 0.00 0.00 78 1015.1
20260507043835 19 311 1.6 3.2 0.00 0.00 0.00 78 1015.2
20260507042836 20 321 1.6 3.2 0.00 0.00 0.00 78 1014.8
20260507041836 20 336 0.0 4.8 0.00 0.00 0.00 78 1014.9
20260507040835 20 310 0.0 4.8 0.00 0.00 0.00 77 1014.3
20260507035835 20 317 0.0 3.2 0.00 0.00 0.00 77 1014.7
20260507034836 20 5 0.0 4.8 0.00 0.00 0.00 77 1014.9
20260507033836 20 348 0.0 4.8 0.00 0.00 0.00 77 1014.7
20260507032835 20 327 0.0 3.2 0.00 0.00 0.00 77 1014.4
20260507031835 20 294 0.0 8.0 0.00 0.00 0.00 77 1014.1
20260507030835 20 346 0.0 9.7 0.00 0.00 0.00 76 1014.0
20260507025835 21 13 1.6 4.8 0.00 0.00 0.00 76 1013.6
20260507024835 21 336 0.0 4.8 0.00 0.00 0.00 76 1013.3